User: anonymous   Login
Location: Luz Observatory
(34.5000°N, 117.2833°W)
Time: 08:51:35
(UTC-07:00)
Language:

Cosmos 1452 Rocket - Orbit

View from above orbital plane
View from above orbital plane
View from above satellite
View from above satellite

Ground track
Ground track

The orbit data is extracted from the following two-line orbital elements,

1 13992U 83031B   15216.23260370  .00000042  00000-0  23585-4 0  9990
2 13992 074.0527 179.6407 0005803 319.6140 139.7254 14.35958533690771
Epoch (UTC): 04 August 2015 05:34:56
Eccentricity: 0.0005803
inclination: 74.0527°
perigee height: 768 km
apogee height: 776 km
right ascension of ascending node: 179.6407°
argument of perigee: 319.6140°
revolutions per day: 14.35958533
mean anomaly at epoch: 139.7254°
orbit number at epoch: 69077

The dashed part of the orbit path shows where the satellite is in the earth's shadow,  

DLR